User: anonymous
Location: Santa Teresa Spring
(37.2333°N, 121.7000°W)
Time: 04:48:44
(UTC-07:00)
Language:

Cosmos 1633 - Orbit

View from above orbital plane
View from above orbital plane
View from above satellite
View from above satellite

Ground track
Ground track

The orbit data is extracted from the following two-line orbital elements,

1 15592U 85020A   14272.06432720  .00010944  00000-0  51083-3 0  5654
2 15592 082.5412 228.6177 0019473 073.0709 053.2277 15.19537702613050
Epoch (UTC): 29 September 2014 01:32:37
Eccentricity: 0.0019473
inclination: 82.5412°
perigee height: 494 km
apogee height: 520 km
right ascension of ascending node: 228.6177°
argument of perigee: 73.0709°
revolutions per day: 15.19537702
mean anomaly at epoch: 53.2277°
orbit number at epoch: 61305

The dashed part of the orbit path shows where the satellite is in the earth's shadow,  

DLR